Wind_Speed
5 6 6 6 7 7 8 8 9 10 9 9 9 10 10 10 9 9 9 9 9 9 9 9 9 9 9 9 9 9 9 9 9 8 8 8 8 8 8 8 8 8 8
7 7 7 8 8 9 10 10 10 11 11 11 11 11 11 11 11 11 11 11 11 10 10 10 10 10 10 10 10 10 10 10 10 10 9 9 9 9 9 9 9 9 9
9 9 9 9 10 11 11 12 12 12 12 12 13 13 13 12 12 12 12 12 12 12 12 11 11 11 11 11 11 11 11 11 11 11 11 11 11 10 10 10 9 10 10
10 11 11 11 12 12 13 13 13 13 14 14 14 14 14 14 14 14 13 13 13 13 13 12 12 12 12 12 12 12 12 12 12 12 12 12 12 12 11 10 10 10 10
11 12 12 12 13 13 14 14 14 15 15 16 16 16 15 15 16 15 15 15 14 14 14 14 14 14 14 14 13 13 14 14 14 14 13 13 13 13 13 12 11 11 11
13 13 13 14 14 14 15 15 16 17 17 17 17 17 17 17 17 17 16 16 16 16 16 15 15 15 15 15 15 15 15 15 15 15 14 14 14 14 14 14 13 12 12
15 15 15 15 15 15 16 16 17 18 18 18 18 18 18 18 19 19 18 18 18 18 18 17 17 17 17 16 16 16 16 17 17 16 15 15 15 15 15 15 15 14 14
16 16 16 16 16 17 17 18 19 19 18 19 19 19 20 20 20 21 20 20 19 19 19 19 18 18 18 18 17 17 17 18 18 17 17 16 16 17 17 16 16 16 15
18 17 17 18 18 18 19 20 20 21 20 20 20 21 21 20 21 21 21 21 21 20 20 20 20 20 20 20 19 18 19 19 20 19 18 18 18 17 17 17 17 17 16
19 19 19 19 20 20 21 21 22 22 22 22 22 22 22 22 22 22 22 22 22 21 21 21 21 21 21 21 20 20 20 20 20 21 19 19 19 19 18 18 18 19 19
20 20 20 21 21 22 22 23 23 23 23 24 24 24 23 23 22 23 23 23 23 23 22 23 22 22 22 21 21 22 22 22 21 21 21 20 20 20 19 20 19 19 20
21 21 21 21 22 23 23 24 24 24 25 25 25 25 25 24 24 24 24 25 24 24 23 23 23 23 23 22 22 23 23 23 23 23 22 22 22 21 21 21 21 21 21
22 22 22 22 23 24 25 26 26 27 27 26 27 27 26 25 25 26 26 26 26 25 24 24 24 24 24 23 23 23 24 23 24 24 24 23 24 24 23 23 22 21 21
23 24 23 23 24 25 26 26 27 27 28 28 27 28 28 27 28 28 27 27 27 25 25 25 24 24 24 24 24 24 24 25 25 25 25 25 25 25 25 24 24 23 23
23 23 23 23 24 26 27 27 28 29 29 29 28 28 28 28 28 27 27 27 27 27 26 26 26 25 25 25 25 25 25 24 25 25 26 26 26 27 25 26 26 26 26
24 25 25 26 26 26 27 28 28 28 28 28 28 28 28 28 28 27 27 27 28 27 27 28 27 26 26 26 27 26 26 26 26 28 28 28 28 28 27 27 27 28 28
26 26 26 27 27 27 27 28 28 28 28 28 28 28 28 29 29 29 29 29 29 29 29 29 28 27 27 27 27 27 28 27 27 28 28 29 29 29 28 28 28 29 29
26 26 27 27 27 27 28 29 28 28 29 28 28 28 29 30 31 31 30 30 30 30 30 30 29 29 28 27 27 28 28 28 28 28 29 29 29 30 30 30 30 30 30
27 27 27 27 27 28 28 29 28 28 29 29 29 29 31 31 31 31 30 31 30 30 30 30 29 29 28 28 28 29 29 29 29 29 29 30 31 31 31 31 32 32 31
27 27 26 27 27 28 28 28 28 28 29 29 29 30 31 31 31 30 29 30 30 30 29 29 29 29 29 28 29 29 29 29 29 29 30 31 31 32 32 31 31 31 32
26 26 27 27 27 28 28 29 29 29 29 29 29 29 30 30 30 30 30 30 30 29 29 29 29 29 28 29 29 30 30 30 30 31 31 31 31 32 33 33 32 32 32
26 26 27 27 28 29 29 29 30 29 29 29 29 29 30 30 30 30 30 30 30 29 29 28 28 29 28 29 30 30 30 29 30 30 31 31 32 32 32 32 32 32 32
25 25 26 27 28 27 28 28 29 29 29 30 29 29 29 29 30 30 30 30 30 29 29 29 29 29 29 30 30 30 30 29 30 30 30 30 30 31 31 31 31 31 32
24 24 26 27 27 26 27 27 28 28 29 29 29 28 28 29 30 30 30 30 30 30 29 29 29 30 30 30 30 31 31 31 31 30 30 30 30 30 30 31 31 31 31
23 24 25 25 26 26 27 27 27 28 28 28 28 28 29 30 30 30 30 29 29 30 29 29 29 29 29 29 29 30 30 31 31 30 29 29 30 30 30 31 30 31 32
24 24 24 24 25 25 25 26 26 28 27 26 27 28 28 29 29 29 29 28 28 29 29 28 28 28 29 29 29 29 30 31 30 31 30 30 29 29 30 30 30 30 32
Wind_Direction
313 313 316 322 322 324 324 324 326 324 320 314 308 303 300 298 294 291 290 292 293 292 291 290 289 289 288 288 288 289 288 286 285 282 280 280 283 284 283 281 277 268 267
308 306 308 311 313 316 317 317 318 319 315 311 306 300 298 296 292 289 288 289 290 289 289 288 287 287 286 283 282 283 284 283 282 280 277 277 278 279 279 279 276 265 261
304 302 300 303 306 310 311 312 313 312 310 308 304 299 297 296 293 290 289 290 291 289 288 286 284 284 283 281 279 279 280 279 277 276 274 275 275 275 275 275 276 265 259
298 300 300 301 304 307 308 308 309 308 306 304 301 298 296 296 294 292 291 291 291 290 288 287 286 285 282 280 280 278 278 278 276 274 273 274 274 275 276 273 275 266 256
297 297 299 300 302 304 305 306 307 306 304 302 300 298 297 296 295 294 293 292 292 291 290 287 287 286 286 282 279 277 276 276 276 273 272 271 272 274 276 272 272 269 255
297 297 299 297 299 301 304 305 306 305 303 301 299 298 298 296 294 293 294 292 292 292 291 289 288 286 285 283 278 278 277 274 274 273 272 271 272 271 272 270 268 270 258
295 297 298 298 298 299 302 304 304 304 303 300 298 297 297 296 295 294 292 291 292 291 290 290 289 286 284 283 279 277 278 276 274 274 272 270 269 269 272 270 268 267 263
293 295 296 297 298 299 301 301 301 301 300 299 298 296 295 295 294 293 291 289 289 289 289 288 288 287 284 283 279 277 279 278 274 273 273 271 270 269 269 269 267 265 264
292 294 295 293 296 297 299 300 299 297 296 297 297 295 294 294 294 291 291 290 288 287 287 287 287 286 284 283 280 278 279 278 276 275 274 273 274 271 270 271 268 264 262
289 291 293 293 294 295 298 299 299 297 296 297 296 294 293 293 293 292 292 291 288 285 285 285 286 285 282 281 281 278 278 279 276 275 275 273 275 274 271 269 269 263 260
291 290 292 293 295 297 298 299 297 295 297 297 296 295 293 292 293 294 292 291 288 285 285 286 285 284 281 280 279 278 278 279 278 278 275 273 273 272 270 268 269 267 262
293 292 291 293 295 297 298 298 298 296 298 297 295 296 294 293 295 294 292 291 291 289 286 286 287 284 282 283 280 278 277 276 277 278 275 273 271 270 270 270 268 266 264
291 293 291 294 297 298 299 299 298 296 296 296 295 295 294 295 297 297 295 293 292 291 289 287 286 287 284 284 283 280 277 275 276 276 274 273 271 270 270 270 268 266 264
290 291 292 294 297 299 299 298 297 298 298 297 296 296 295 296 296 295 294 293 292 291 291 289 289 290 286 284 283 281 281 278 277 276 274 274 273 272 269 268 268 268 266
288 290 292 296 297 298 297 297 297 298 299 298 298 298 296 295 295 294 293 294 293 291 288 288 289 289 287 284 283 282 281 279 275 276 275 274 275 272 269 269 269 268 266
288 290 291 295 297 297 296 296 297 298 298 299 300 300 299 297 294 293 293 293 292 291 290 288 287 286 286 285 283 282 281 281 278 276 275 274 273 271 269 269 267 266 265
289 290 291 292 294 295 294 295 296 296 298 299 301 301 300 296 294 294 292 292 290 289 290 288 288 287 286 285 283 282 281 281 281 278 274 273 271 269 268 268 267 267 265
289 290 290 291 292 293 293 294 295 295 297 299 300 301 299 297 296 295 293 292 291 289 289 288 287 287 285 284 283 284 283 281 280 278 274 272 271 269 267 266 266 266 264
288 289 289 290 292 293 294 295 295 296 297 298 298 299 297 295 296 296 295 294 293 291 290 288 288 286 285 285 284 284 284 282 279 277 276 273 272 272 270 268 266 266 264
289 289 288 290 290 291 293 295 296 296 297 297 296 296 296 295 296 297 297 296 294 292 291 288 288 287 286 285 285 284 283 282 280 278 276 275 274 273 272 270 268 266 264
288 286 288 289 289 290 292 294 295 297 297 296 296 295 295 296 297 297 297 297 295 294 291 288 288 287 286 285 285 285 284 282 283 280 278 275 273 273 272 271 270 267 264
290 288 287 288 289 290 292 294 295 297 297 297 296 297 296 297 298 297 296 296 295 293 292 289 287 286 286 285 285 285 285 285 284 282 280 278 274 273 272 272 269 267 265
292 291 291 291 292 291 293 295 297 297 297 299 299 298 297 297 298 297 296 296 295 294 291 288 286 287 287 287 287 287 287 286 284 282 280 278 275 274 272 272 270 267 266
294 295 294 294 293 291 292 296 299 299 299 299 299 299 299 300 299 300 298 295 295 294 292 290 288 288 288 289 289 288 287 288 286 282 280 277 275 274 272 272 270 267 266
298 298 296 297 294 293 294 296 298 298 299 299 299 300 300 302 303 302 301 298 297 297 295 292 290 288 288 290 290 290 289 288 287 284 280 278 276 276 274 273 272 269 267
297 299 300 297 296 296 296 298 298 300 300 300 301 302 302 303 304 303 302 300 299 298 297 293 290 290 290 290 290 290 291 290 287 284 283 280 278 276 275 275 273 271 270
Height
5895 5894 5894 5894 5893 5893 5892 5892 5891 5890 5889 5888 5887 5887 5886 5885 5884 5883 5882 5881 5880 5879 5879 5878 5877 5877 5876 5876 5875 5874 5874 5874 5874 5873 5873 5873 5872 5872 5872 5872 5872 5873 5873
5895 5894 5893 5893 5893 5892 5891 5891 5890 5889 5888 5887 5886 5885 5884 5884 5883 5882 5881 5880 5879 5878 5877 5876 5876 5875 5874 5874 5873 5873 5873 5872 5872 5872 5871 5871 5871 5871 5871 5871 5871 5871 5871
5894 5893 5893 5892 5891 5891 5890 5889 5888 5887 5886 5885 5884 5883 5883 5882 5881 5880 5879 5878 5877 5876 5875 5875 5874 5873 5873 5872 5872 5871 5871 5870 5870 5870 5870 5869 5869 5869 5869 5869 5869 5869 5870
5893 5892 5891 5891 5890 5889 5888 5888 5887 5886 5884 5883 5882 5881 5880 5880 5879 5878 5877 5876 5875 5874 5873 5872 5872 5871 5870 5870 5869 5869 5868 5868 5868 5867 5868 5867 5867 5866 5866 5867 5867 5867 5868
5891 5891 5890 5889 5888 5888 5887 5886 5885 5883 5882 5881 5880 5879 5878 5877 5876 5876 5875 5874 5873 5872 5871 5870 5869 5869 5868 5867 5867 5866 5866 5865 5865 5865 5865 5865 5865 5865 5864 5865 5865 5865 5866
5890 5889 5888 5887 5887 5885 5884 5883 5882 5881 5880 5879 5878 5877 5876 5875 5874 5873 5872 5871 5870 5869 5868 5867 5866 5866 5865 5865 5864 5863 5863 5862 5861 5861 5862 5862 5862 5862 5863 5863 5863 5863 5863
5887 5887 5886 5885 5884 5883 5882 5881 5880 5879 5877 5876 5875 5874 5873 5872 5871 5870 5869 5868 5867 5866 5865 5864 5864 5863 5862 5861 5861 5860 5860 5859 5859 5858 5859 5859 5858 5858 5859 5860 5860 5860 5861
5885 5884 5883 5883 5882 5881 5879 5878 5877 5876 5874 5873 5872 5871 5870 5869 5868 5867 5866 5865 5863 5862 5862 5861 5860 5860 5859 5858 5857 5857 5856 5856 5856 5856 5856 5855 5856 5856 5856 5856 5857 5857 5858
5882 5881 5881 5880 5879 5878 5876 5874 5873 5872 5871 5870 5868 5868 5867 5865 5864 5863 5862 5861 5860 5859 5858 5857 5856 5856 5855 5854 5854 5853 5853 5852 5852 5852 5852 5851 5851 5851 5852 5852 5853 5854 5854
5878 5878 5878 5877 5876 5874 5873 5871 5869 5868 5867 5866 5865 5864 5863 5862 5860 5859 5858 5857 5855 5854 5854 5853 5852 5852 5851 5850 5850 5849 5848 5848 5848 5848 5848 5848 5847 5847 5848 5849 5849 5850 5851
5876 5875 5874 5873 5872 5871 5870 5868 5865 5864 5863 5862 5861 5859 5858 5857 5856 5855 5853 5852 5851 5850 5849 5848 5848 5847 5846 5846 5845 5845 5844 5844 5844 5844 5844 5843 5844 5844 5844 5844 5845 5846 5846
5873 5872 5871 5869 5868 5867 5866 5864 5861 5859 5858 5857 5856 5855 5854 5852 5851 5850 5848 5847 5846 5845 5844 5844 5843 5842 5841 5841 5840 5840 5839 5839 5839 5839 5839 5839 5839 5839 5840 5840 5840 5841 5842
5869 5868 5866 5865 5864 5863 5862 5860 5858 5856 5855 5853 5852 5851 5849 5847 5846 5845 5843 5842 5841 5840 5839 5838 5838 5837 5836 5836 5835 5834 5834 5834 5833 5833 5834 5834 5834 5834 5834 5835 5835 5836 5837
5866 5864 5863 5861 5860 5858 5857 5855 5853 5852 5850 5848 5847 5845 5843 5842 5841 5840 5838 5837 5836 5835 5834 5833 5832 5831 5831 5830 5829 5829 5828 5827 5827 5827 5828 5829 5828 5828 5829 5829 5830 5831 5832
5861 5860 5859 5857 5856 5854 5852 5850 5849 5847 5845 5844 5842 5840 5838 5837 5836 5834 5833 5831 5830 5829 5828 5827 5827 5826 5825 5825 5824 5824 5823 5821 5821 5821 5822 5822 5823 5823 5823 5823 5824 5825 5826
5857 5856 5855 5853 5852 5850 5848 5846 5844 5842 5840 5839 5837 5835 5833 5832 5830 5829 5827 5826 5825 5823 5822 5821 5821 5820 5819 5819 5818 5818 5817 5816 5816 5815 5816 5816 5816 5816 5816 5817 5818 5819 5820
5853 5851 5850 5849 5847 5845 5844 5842 5840 5837 5835 5834 5832 5830 5828 5826 5825 5823 5821 5820 5818 5817 5815 5815 5814 5813 5812 5812 5812 5811 5811 5810 5810 5809 5809 5810 5810 5810 5810 5810 5811 5812 5812
5848 5846 5845 5844 5842 5840 5838 5836 5835 5833 5831 5829 5827 5825 5823 5821 5818 5817 5815 5813 5811 5810 5809 5808 5807 5806 5805 5805 5805 5804 5804 5803 5803 5802 5802 5802 5802 5802 5803 5803 5803 5804 5805
5843 5841 5840 5838 5837 5835 5833 5831 5829 5828 5826 5823 5821 5819 5817 5815 5813 5811 5809 5807 5805 5803 5802 5801 5800 5799 5798 5798 5797 5797 5796 5796 5795 5794 5794 5794 5795 5795 5795 5795 5796 5796 5797
5837 5836 5834 5833 5831 5829 5828 5826 5824 5822 5820 5818 5816 5814 5811 5809 5807 5805 5803 5801 5799 5797 5795 5794 5793 5792 5791 5790 5790 5789 5789 5788 5787 5787 5786 5786 5786 5786 5786 5787 5787 5788 5788
5832 5831 5829 5828 5826 5824 5823 5821 5819 5816 5814 5812 5810 5808 5806 5804 5801 5799 5797 5795 5793 5791 5789 5787 5786 5785 5784 5783 5783 5782 5781 5780 5779 5779 5778 5778 5778 5778 5778 5778 5778 5779 5779
5827 5825 5823 5822 5821 5819 5817 5815 5813 5811 5808 5806 5804 5802 5800 5798 5795 5793 5790 5788 5786 5784 5782 5780 5779 5778 5777 5776 5775 5774 5773 5773 5771 5770 5770 5769 5769 5769 5769 5769 5770 5770 5771
5821 5820 5818 5816 5815 5812 5811 5808 5807 5804 5802 5800 5798 5796 5794 5791 5789 5786 5784 5781 5779 5777 5775 5773 5772 5771 5770 5768 5767 5766 5764 5764 5763 5762 5761 5760 5760 5760 5760 5761 5761 5761 5762
5816 5814 5813 5810 5808 5806 5805 5803 5800 5798 5796 5794 5792 5790 5787 5784 5782 5779 5776 5774 5771 5769 5767 5766 5765 5763 5762 5760 5759 5757 5756 5755 5754 5754 5753 5752 5751 5751 5751 5752 5752 5752 5753
5811 5809 5807 5804 5802 5800 5798 5797 5794 5792 5790 5788 5786 5784 5781 5778 5775 5772 5769 5767 5764 5762 5760 5759 5757 5756 5754 5753 5751 5750 5748 5747 5745 5745 5744 5743 5743 5742 5742 5742 5743 5743 5743
5806 5804 5801 5799 5797 5795 5793 5791 5788 5786 5784 5782 5779 5777 5774 5771 5768 5765 5763 5760 5758 5756 5753 5751 5750 5748 5747 5745 5744 5742 5740 5739 5737 5736 5736 5735 5734 5734 5733 5733 5733 5733 5734